Погода в Андреевском

Россия / Тюменская область     57°03′59″N   65°48′14″E
темп.,
°C
ветер,
м/с
пор.,
м/с
влажн.,
%
обл.,
%
осадки,
мм/ч
давл.,
гПа
погр.,
м
24 мая, вт
вт2423:00+8ююв2795100 0.1 1006300
02:00+8ююв2996100 0.0 1007274
05:00+10ююв399869 0.1 1007293
08:00+14ююз5982100 0.2 1008792
11:00+18ююз596496 0.3 10091454
14:00+16ю248162 1.3 1011336
17:00+18всв238147 2.3 1010199
20:00+17св2389100 0.1 101062
25 мая, ср
ср2523:00+14св359781 0.6 101198
02:00+13вюв2293100 0.0 101141
05:00+12юв3881100 0.0 1012139
08:00+18юв41265100 0.0 1011371
11:00+22ююв51145100 0.0 1011584
14:00+25ююв61045100 0.0 1011964
17:00+24ююв61146100 0.0 10101167
20:00+20юв31168100 0.0 1010294
26 мая, чт
чт2623:00+17юв4137077 0.0 1009266
02:00+14юв310775 0.0 1009194
05:00+14юв2877100 0.0 1008170
08:00+19ююв4958100 0.0 1007457
11:00+24ююв35465 0.0 1006985
14:00+27юв383872 0.0 10052073
17:00+23сз555686 0.3 1004901
20:00+12ссз71194100 13.0 1005384
27 мая, пт
пт2723:00+11ссз61294100 21.1 1006564
02:00+9сз71293100 1.4 1007712
05:00+8сз71490100 3.7 1008684
08:00+9сз61382100 0.4 1010834
11:00+14зсз610505 0.4 10111295
14:00+16зсз574533 0.0 10121594
17:00+17зсз464541 0.0 10131784
20:00+14з226313 0.0 101367
28 мая, сб
сб2823:00+10юз23808 0.0 101450
02:00+9зюз248213 0.0 101566
05:00+9ююз228327 0.0 101532
08:00+15ю246313 0.0 1015403
11:00+18ю354953 0.0 10141703
14:00+18ю3452100 0.0 1014952
17:00+18ююз235514 0.0 10141028
20:00+16ююв23695 0.0 101471